"startDT [UTC]","vpos","CH4 [ppm]","stdev(CH4) [ppm]","CO2 [ppm]","stdev(CO2) [ppm]","H2O [ppm]","stdev(H2O)","p_LGR [torr]","T_LGR [C]","mt1_LGR [us]","mt2_LGR [us]","T_ECpre [C]","T_EC1 [C]","T_EC2 [C]","p_inlet [hPa]","p_in [hPa]","p_out [hPa]","T_inlet [C]","RH_inlet [%]","dwpt_inlet [C]","T_vent [C]","RH_vent [%]","dwpt_vent [C]","flow_vent [l min-1]","flow_inlet [l min-1]","dwpt_sample [C]","T_room [C]"
2012-08-07 00:00:00,0.0,,,,,,,,,,,0.97,-26.36,-25.08,-49,567,-939,27.5,23.2,4.6,27.4,1.3,-30.6,5.73,2.42,-27.1,30.8
2012-08-07 00:01:00,0.0,,,,,,,,,,,1.01,-26.35,-25.34,-49,567,-939,27.5,23.7,4.9,27.4,1.3,-30.6,5.73,2.43,-27.1,30.8
2012-08-07 00:02:00,0.0,,,,,,,,,,,1.06,-26.36,-25.56,-49,567,-939,27.5,23.5,4.8,27.4,1.3,-30.7,5.73,2.41,-27.1,30.8
2012-08-07 00:03:00,0.0,,,,,,,,,,,1.05,-26.37,-25.79,-49,567,-939,27.5,23.0,4.5,27.4,1.3,-30.7,5.73,2.42,-27.1,30.8
2012-08-07 00:04:00,0.0,,,,,,,,,,,0.98,-26.38,-25.99,-49,567,-939,27.5,22.9,4.4,27.4,1.3,-30.7,5.73,2.42,-27.1,30.9
2012-08-07 00:05:00,0.0,,,,,,,,,,,0.97,-26.38,-26.19,-49,567,-939,27.5,22.9,4.5,27.4,1.3,-30.7,5.73,2.42,-27.1,30.9
2012-08-07 00:06:00,0.0,,,,,,,,,,,1.02,-26.39,-26.36,-49,567,-939,27.5,23.6,4.9,27.4,1.3,-30.6,5.73,2.42,-27.1,30.9
2012-08-07 00:07:00,0.0,,,,,,,,,,,1.00,-26.40,-26.21,-49,567,-939,27.5,23.2,4.7,27.4,1.3,-30.7,5.73,2.42,-27.1,31.0
2012-08-07 00:08:00,0.0,,,,,,,,,,,1.06,-26.40,-26.14,-49,567,-939,27.5,23.3,4.7,27.4,1.3,-30.6,5.73,2.42,-27.1,31.0
2012-08-07 00:09:00,0.0,,,,,,,,,,,0.98,-26.41,-26.27,-49,567,-939,27.5,22.9,4.5,27.5,1.3,-30.6,5.73,2.42,-27.1,30.9
2012-08-07 00:10:00,0.0,,,,,,,,,,,0.97,-26.41,-26.41,-49,567,-939,27.5,22.9,4.5,27.5,1.3,-30.8,5.73,2.42,-27.1,30.9
2012-08-07 00:11:00,0.0,,,,,,,,,,,1.00,-26.42,-26.17,-49,567,-939,27.6,22.6,4.3,27.5,1.3,-30.9,5.73,2.42,-27.1,30.9
2012-08-07 00:12:00,0.0,,,,,,,,,,,1.03,-26.43,-26.18,-49,567,-939,27.5,22.4,4.2,27.5,1.3,-30.8,5.73,2.42,-27.1,30.9
2012-08-07 00:13:00,0.0,,,,,,,,,,,1.08,-26.43,-26.32,-49,567,-939,27.5,22.4,4.1,27.5,1.3,-30.9,5.73,2.42,-27.1,30.9
2012-08-07 00:14:00,0.0,,,,,,,,,,,1.00,-26.44,-26.42,-49,567,-939,27.5,22.4,4.2,27.5,1.3,-30.8,5.73,2.42,-27.1,31.0
2012-08-07 00:15:00,0.0,,,,,,,,,,,0.99,-26.44,-26.16,-49,567,-939,27.5,22.3,4.1,27.5,1.3,-30.9,5.73,2.42,-27.1,31.0
2012-08-07 00:16:00,0.0,,,,,,,,,,,0.98,-26.45,-26.22,-49,567,-939,27.6,22.3,4.1,27.5,1.3,-30.9,5.73,2.42,-27.1,30.9
2012-08-07 00:17:00,0.0,,,,,,,,,,,0.93,-26.34,-26.38,-49,568,-939,27.6,22.5,4.2,27.5,1.3,-30.8,5.73,2.43,-27.1,30.9
2012-08-07 00:18:00,0.0,,,,,,,,,,,0.94,-25.09,-26.53,-49,567,-939,27.6,22.9,4.5,27.5,1.3,-30.9,5.73,2.42,-27.1,30.9
2012-08-07 00:19:00,0.0,,,,,,,,,,,0.95,-23.20,-26.63,-49,567,-939,27.6,22.7,4.4,27.5,1.4,-29.7,5.73,2.42,-27.1,30.9
2012-08-07 00:20:00,0.0,,,,,,,,,,,0.95,-21.26,-26.67,-49,568,-939,27.6,22.2,4.1,27.5,1.5,-28.8,5.73,2.42,-27.1,30.9
2012-08-07 00:21:00,0.0,,,,,,,,,,,0.92,-19.37,-26.68,-49,568,-939,27.6,22.2,4.1,27.5,1.6,-28.5,5.73,2.42,-27.1,31.0
2012-08-07 00:22:00,0.0,,,,,,,,,,,0.89,-17.57,-26.67,-49,568,-939,27.6,22.2,4.1,27.5,1.6,-28.4,5.73,2.42,-27.1,30.9
2012-08-07 00:23:00,0.0,,,,,,,,,,,0.87,-15.85,-26.66,-49,567,-939,27.6,22.7,4.4,27.5,1.6,-28.4,5.73,2.42,-27.1,31.0
2012-08-07 00:24:00,0.0,,,,,,,,,,,0.86,-14.24,-26.64,-49,568,-939,27.6,22.0,3.9,27.6,1.6,-28.5,5.73,2.42,-27.1,31.0
2012-08-07 00:25:00,0.0,,,,,,,,,,,0.91,-12.70,-26.61,-49,568,-939,27.6,21.8,3.9,27.6,1.6,-28.7,5.73,2.42,-27.1,30.9
2012-08-07 00:26:00,0.0,,,,,,,,,,,0.91,-11.25,-26.58,-49,568,-939,27.6,21.9,3.9,27.6,1.5,-28.7,5.73,2.42,-27.1,31.0
2012-08-07 00:27:00,0.0,,,,,,,,,,,0.93,-9.88,-26.56,-49,568,-939,27.6,22.7,4.4,27.6,1.5,-28.9,5.73,2.41,-27.1,31.0
2012-08-07 00:28:00,0.0,,,,,,,,,,,0.94,-8.58,-26.53,-49,568,-939,27.6,23.3,4.8,27.6,1.5,-29.0,5.73,2.42,-27.1,31.0
2012-08-07 00:29:00,0.0,,,,,,,,,,,0.94,-7.34,-26.51,-49,568,-939,27.6,22.9,4.6,27.6,1.5,-29.1,5.73,2.42,-27.1,31.0
2012-08-07 00:30:00,0.0,,,,,,,,,,,0.95,-6.15,-26.48,-49,568,-939,27.6,22.5,4.3,27.6,1.5,-29.2,5.73,2.42,-27.0,31.1
2012-08-07 00:31:00,0.0,,,,,,,,,,,0.95,-5.03,-26.46,-49,568,-939,27.6,22.8,4.5,27.6,1.5,-29.3,5.73,2.42,-27.1,31.0
2012-08-07 00:32:00,0.0,,,,,,,,,,,0.95,-3.96,-26.44,-49,568,-939,27.6,22.6,4.4,27.6,1.5,-29.4,5.73,2.42,-27.0,31.0
2012-08-07 00:33:00,0.0,,,,,,,,,,,0.94,-2.94,-26.41,-49,568,-939,27.6,23.1,4.7,27.6,1.4,-29.6,5.73,2.42,-27.0,31.0
2012-08-07 00:34:00,0.0,,,,,,,,,,,0.94,-1.98,-26.39,-49,568,-939,27.6,23.4,4.9,27.6,1.4,-29.5,5.73,2.42,-27.0,31.1
2012-08-07 00:35:00,0.0,,,,,,,,,,,0.93,-1.06,-26.37,-49,568,-939,27.7,23.5,4.9,27.6,1.4,-29.6,5.73,2.42,-27.0,31.1
2012-08-07 00:36:00,0.0,,,,,,,,,,,0.93,-0.20,-26.35,-49,568,-939,27.7,23.9,5.2,27.6,1.4,-29.8,5.73,2.42,-27.0,31.1
2012-08-07 00:37:00,0.0,,,,,,,,,,,0.92,0.63,-26.34,-49,568,-939,27.7,23.8,5.1,27.6,1.4,-29.7,5.73,2.42,-27.0,31.1
2012-08-07 00:38:00,0.0,,,,,,,,,,,0.93,1.40,-26.32,-49,568,-939,27.7,23.0,4.7,27.6,1.4,-29.7,5.73,2.42,-27.0,31.1
2012-08-07 00:39:00,0.0,,,,,,,,,,,0.92,2.12,-26.29,-49,568,-939,27.7,23.0,4.7,27.6,1.4,-29.9,5.73,2.43,-27.0,31.1
2012-08-07 00:40:00,0.0,,,,,,,,,,,0.92,2.70,-26.27,-49,568,-939,27.7,23.1,4.7,27.6,1.4,-29.9,5.73,2.43,-26.9,31.1
2012-08-07 00:41:00,0.0,,,,,,,,,,,0.93,2.91,-26.26,-49,568,-939,27.7,22.3,4.2,27.6,1.4,-29.9,5.73,2.42,-27.0,31.1
2012-08-07 00:42:00,0.0,,,,,,,,,,,0.93,3.07,-26.24,-49,568,-939,27.7,22.2,4.2,27.6,1.4,-29.9,5.73,2.42,-26.9,31.1
2012-08-07 00:43:00,0.0,,,,,,,,,,,0.94,3.41,-26.22,-49,568,-939,27.7,21.7,3.8,27.6,1.4,-30.1,5.73,2.42,-26.9,31.1
2012-08-07 00:44:00,0.0,,,,,,,,,,,0.94,3.92,-26.20,-49,568,-939,27.7,22.6,4.4,27.6,1.4,-30.1,5.73,2.42,-26.9,31.1
2012-08-07 00:45:00,0.0,,,,,,,,,,,0.93,4.43,-26.18,-49,568,-939,27.7,23.1,4.8,27.6,1.4,-30.1,5.73,2.42,-26.9,31.2
2012-08-07 00:46:00,0.0,,,,,,,,,,,0.96,4.93,-26.16,-49,568,-939,27.7,23.5,5.0,27.6,1.3,-30.1,5.73,2.42,-26.9,31.2
2012-08-07 00:47:00,0.0,1.8945,0.0011,383.95,0.23,13.2,27.1,138.06,31.35,24.65,36.39,0.94,5.40,-26.14,-49,568,-939,27.7,22.6,4.5,27.6,1.4,-30.1,5.73,2.41,-26.9,31.1
2012-08-07 00:48:00,0.0,1.8945,0.0012,384.02,0.28,10.8,21.1,138.06,31.35,24.65,36.39,0.94,5.87,-26.13,-49,568,-939,27.7,23.0,4.7,27.6,1.4,-30.1,5.73,2.41,-26.9,31.1
2012-08-07 00:49:00,0.0,1.8954,0.0012,384.23,0.12,6.7,7.7,138.05,31.36,24.64,36.37,0.93,6.32,-26.11,-49,568,-939,27.7,22.6,4.4,27.6,1.4,-30.1,5.73,2.41,-26.9,31.1
2012-08-07 00:50:00,0.0,,,,,,,,,,,0.94,6.80,-26.09,-49,568,-939,27.7,22.0,4.1,27.6,1.3,-30.1,5.73,2.42,-26.9,31.1
2012-08-07 00:51:00,0.0,,,,,,,,,,,0.94,7.26,-26.08,-49,568,-939,27.7,22.1,4.2,27.7,1.4,-30.1,5.73,2.41,-26.9,31.2
2012-08-07 00:52:00,0.0,,,,,,,,,,,0.94,7.73,-26.06,-49,568,-939,27.7,22.2,4.2,27.7,1.4,-30.1,5.73,2.41,-26.9,31.2
2012-08-07 00:53:00,0.0,,,,,,,,,,,0.95,8.17,-26.05,-49,568,-939,27.8,21.2,3.6,27.7,1.4,-30.1,5.73,2.42,-26.9,31.1
2012-08-07 00:54:00,0.0,,,,,,,,,,,0.95,8.58,-26.04,-49,568,-939,27.8,21.6,3.8,27.7,1.3,-30.1,5.73,2.41,-26.8,31.2
2012-08-07 00:55:00,0.0,,,,,,,,,,,0.96,8.97,-26.02,-49,568,-939,27.7,21.3,3.6,27.7,1.4,-30.1,5.73,2.42,-26.8,31.2
2012-08-07 00:56:00,0.0,,,,,,,,,,,0.94,9.34,-26.01,-49,568,-939,27.8,21.1,3.5,27.7,1.4,-30.0,5.73,2.42,-26.8,31.2
2012-08-07 00:57:00,0.0,,,,,,,,,,,0.94,9.71,-25.99,-49,568,-939,27.8,21.2,3.6,27.7,1.3,-30.1,5.73,2.41,-26.8,31.2
2012-08-07 00:58:00,0.0,,,,,,,,,,,0.94,10.07,-25.98,-49,568,-939,27.8,21.7,3.9,27.7,1.4,-30.1,5.73,2.42,-26.8,31.2
2012-08-07 00:59:00,0.0,,,,,,,,,,,0.95,10.41,-25.97,-49,568,-939,27.8,21.4,3.7,27.7,1.4,-30.1,5.73,2.42,-26.8,31.2
2012-08-07 01:00:00,0.0,,,,,,,,,,,0.95,10.74,-25.96,-49,568,-939,27.8,21.3,3.7,27.7,1.4,-30.1,5.73,2.42,-26.8,31.2
2012-08-07 01:01:00,0.0,,,,,,,,,,,0.95,11.06,-25.95,-49,569,-939,27.8,22.1,4.2,27.8,1.4,-30.0,5.73,2.41,-26.8,31.3
2012-08-07 01:02:00,0.0,,,,,,,,,,,0.96,11.36,-25.94,-49,569,-940,27.8,21.9,4.0,27.8,1.4,-30.0,5.73,2.41,-26.8,31.3
2012-08-07 01:03:00,0.0,,,,,,,,,,,0.95,11.66,-25.92,-49,569,-939,27.8,22.0,4.1,27.8,1.4,-30.0,5.73,2.41,-26.8,31.2
2012-08-07 01:04:00,0.0,,,,,,,,,,,0.95,11.95,-25.91,-49,569,-940,27.8,21.9,4.0,27.8,1.4,-30.0,5.73,2.41,-26.8,31.2
2012-08-07 01:05:00,0.0,,,,,,,,,,,0.96,12.22,-25.90,-49,569,-939,27.8,21.6,3.9,27.8,1.4,-30.0,5.73,2.41,-26.8,31.3
2012-08-07 01:06:00,0.0,,,,,,,,,,,0.96,12.49,-25.89,-49,569,-940,27.8,21.6,3.9,27.8,1.3,-30.1,5.73,2.41,-26.8,31.3
2012-08-07 01:07:00,0.0,,,,,,,,,,,0.96,12.74,-25.89,-49,569,-939,27.9,22.0,4.2,27.8,1.4,-30.0,5.73,2.41,-26.8,31.3
2012-08-07 01:08:00,0.0,,,,,,,,,,,0.94,12.98,-25.88,-49,569,-940,27.9,21.9,4.1,27.8,1.4,-30.0,5.73,2.41,-26.7,31.3
2012-08-07 01:09:00,0.0,,,,,,,,,,,0.95,13.21,-25.87,-49,569,-939,27.9,21.7,4.0,27.8,1.3,-30.1,5.73,2.42,-26.8,31.3
2012-08-07 01:10:00,0.0,,,,,,,,,,,0.95,13.44,-25.86,-49,569,-940,27.9,21.3,3.7,27.8,1.3,-30.1,5.73,2.41,-26.8,31.3
2012-08-07 01:11:00,0.0,,,,,,,,,,,0.94,13.65,-25.85,-49,569,-939,27.9,21.0,3.5,27.8,1.3,-30.0,5.73,2.42,-26.8,31.3
2012-08-07 01:12:00,0.0,,,,,,,,,,,0.95,13.86,-25.85,-49,569,-940,27.9,20.3,3.1,27.8,1.4,-30.0,5.73,2.42,-26.7,31.3
2012-08-07 01:13:00,0.0,,,,,,,,,,,0.95,14.06,-25.83,-49,569,-939,27.9,21.8,4.0,27.8,1.3,-30.0,5.73,2.41,-26.8,31.3
2012-08-07 01:14:00,0.0,,,,,,,,,,,0.95,14.25,-25.83,-49,569,-940,27.9,21.6,3.9,27.8,1.4,-30.0,5.73,2.41,-26.7,31.3
2012-08-07 01:15:00,0.0,,,,,,,,,,,0.96,14.44,-25.82,-49,569,-939,27.9,21.5,3.9,27.8,1.4,-30.0,5.73,2.41,-26.7,31.3
2012-08-07 01:16:00,0.0,,,,,,,,,,,0.95,14.62,-25.81,-49,569,-940,27.9,20.8,3.4,27.8,1.3,-30.0,5.73,2.40,-26.7,31.4
2012-08-07 01:17:00,0.0,,,,,,,,,,,0.95,14.78,-25.81,-49,569,-939,27.9,21.0,3.5,27.8,1.3,-30.0,5.73,2.40,-26.7,31.4
2012-08-07 01:18:00,0.0,,,,,,,,,,,0.97,14.94,-25.80,-49,569,-940,27.9,21.0,3.6,27.8,1.4,-30.0,5.73,2.41,-26.7,31.4
2012-08-07 01:19:00,0.0,,,,,,,,,,,0.96,15.10,-25.79,-49,569,-939,27.9,20.9,3.5,27.9,1.4,-30.0,5.73,2.41,-26.7,31.4
2012-08-07 01:20:00,0.0,,,,,,,,,,,0.95,15.24,-25.78,-49,569,-940,27.9,20.8,3.5,27.9,1.4,-30.0,5.73,2.41,-26.7,31.4
2012-08-07 01:21:00,0.0,,,,,,,,,,,0.96,15.38,-25.78,-49,569,-939,27.9,20.4,3.2,27.9,1.3,-30.0,5.73,2.41,-26.7,31.4
2012-08-07 01:22:00,0.0,,,,,,,,,,,0.95,15.51,-25.78,-49,569,-940,28.0,20.0,2.9,27.9,1.3,-30.0,5.73,2.41,-26.7,31.4
2012-08-07 01:23:00,0.0,,,,,,,,,,,0.95,15.64,-25.77,-49,569,-939,27.9,19.9,2.8,27.9,1.3,-30.0,5.73,2.41,-26.7,31.4
2012-08-07 01:24:00,0.0,,,,,,,,,,,0.97,15.77,-25.77,-49,569,-939,28.0,21.1,3.6,27.9,1.3,-30.0,5.73,2.41,-26.7,31.4
2012-08-07 01:25:00,0.0,,,,,,,,,,,0.93,15.89,-25.76,-49,569,-939,28.0,21.4,3.8,27.9,1.3,-30.0,5.73,2.42,-26.7,31.4
2012-08-07 01:26:00,0.0,,,,,,,,,,,0.97,16.00,-25.75,-49,569,-940,28.0,21.8,4.1,27.9,1.3,-30.0,5.73,2.41,-26.7,31.4
2012-08-07 01:27:00,0.0,,,,,,,,,,,0.96,16.10,-25.75,-49,569,-939,28.0,21.6,4.0,27.9,1.3,-30.1,5.73,2.41,-26.7,31.5
2012-08-07 01:28:00,0.0,,,,,,,,,,,0.95,16.21,-25.74,-49,569,-940,28.0,21.4,3.9,27.9,1.3,-30.0,5.73,2.40,-26.7,31.4
2012-08-07 01:29:00,0.0,,,,,,,,,,,0.96,16.31,-25.74,-49,569,-939,28.0,21.0,3.6,27.9,1.3,-30.1,5.73,2.40,-26.7,31.4
2012-08-07 01:30:00,0.0,,,,,,,,,,,0.95,16.40,-25.73,-49,569,-939,28.0,20.2,3.1,27.9,1.3,-30.1,5.73,2.40,-26.7,31.4
2012-08-07 01:31:00,0.0,,,,,,,,,,,0.95,16.50,-25.72,-49,569,-939,28.0,20.9,3.6,27.9,1.3,-30.1,5.73,2.40,-26.7,31.5
2012-08-07 01:32:00,0.0,,,,,,,,,,,0.95,16.59,-25.72,-49,569,-940,28.0,20.9,3.6,28.0,1.3,-30.1,5.73,2.41,-26.7,31.5
2012-08-07 01:33:00,0.0,,,,,,,,,,,0.96,16.67,-25.71,-49,569,-939,28.0,20.3,3.2,28.0,1.3,-30.2,5.73,2.41,-26.7,31.5
2012-08-07 01:34:00,0.0,,,,,,,,,,,0.97,16.75,-25.71,-49,570,-940,28.0,21.2,3.8,28.0,1.3,-30.2,5.73,2.41,-26.7,31.5
2012-08-07 01:35:00,0.0,,,,,,,,,,,0.96,16.83,-25.71,-49,570,-939,28.0,20.7,3.5,28.0,1.3,-30.2,5.73,2.42,-26.7,31.5
2012-08-07 01:36:00,0.0,,,,,,,,,,,0.97,16.91,-25.70,-49,570,-940,28.1,20.6,3.4,28.0,1.3,-30.2,5.73,2.41,-26.7,31.5
2012-08-07 01:37:00,0.0,,,,,,,,,,,0.97,16.98,-25.69,-49,570,-939,28.1,20.7,3.5,28.0,1.3,-30.2,5.73,2.41,-26.7,31.5
2012-08-07 01:38:00,0.0,,,,,,,,,,,0.97,17.05,-25.69,-49,570,-940,28.1,20.3,3.2,28.0,1.3,-30.1,5.73,2.41,-26.7,31.5
2012-08-07 01:39:00,0.0,,,,,,,,,,,0.96,17.11,-25.69,-49,570,-939,28.1,19.1,2.4,28.0,1.3,-30.1,5.73,2.40,-26.7,31.4
2012-08-07 01:40:00,0.0,,,,,,,,,,,0.95,17.17,-25.69,-49,570,-940,28.1,18.2,1.7,28.0,1.3,-30.1,5.73,2.39,-26.7,31.5
2012-08-07 01:41:00,0.0,,,,,,,,,,,0.97,17.24,-25.68,-49,570,-939,28.1,17.7,1.3,28.0,1.3,-30.1,5.73,2.40,-26.7,31.5
2012-08-07 01:42:00,0.0,,,,,,,,,,,0.95,17.29,-25.68,-49,570,-940,28.1,18.0,1.6,28.0,1.3,-30.1,5.73,2.40,-26.7,31.5
2012-08-07 01:43:00,0.0,,,,,,,,,,,0.95,17.35,-25.68,-49,570,-939,28.1,19.2,2.4,28.0,1.3,-30.1,5.73,2.40,-26.7,31.5
2012-08-07 01:44:00,0.0,,,,,,,,,,,0.96,17.40,-25.68,-49,570,-940,28.1,18.6,2.0,28.0,1.3,-30.1,5.73,2.41,-26.7,31.5
2012-08-07 01:45:00,0.0,,,,,,,,,,,0.95,17.45,-25.68,-49,570,-939,28.1,18.8,2.1,28.1,1.3,-30.1,5.73,2.41,-26.7,31.6
2012-08-07 01:46:00,0.0,,,,,,,,,,,0.95,17.50,-25.67,-49,570,-940,28.1,18.3,1.8,28.0,1.3,-30.1,5.73,2.41,-26.7,31.6
2012-08-07 01:47:00,0.0,1.8945,0.0011,383.95,0.23,13.2,27.1,138.06,31.35,24.65,36.39,0.95,17.55,-25.67,-49,570,-939,28.1,18.6,2.0,28.1,1.3,-30.1,5.73,2.41,-26.7,31.6
2012-08-07 01:48:00,0.0,1.8945,0.0012,384.02,0.28,10.8,21.1,138.06,31.35,24.65,36.39,0.95,17.59,-25.67,-49,570,-940,28.1,17.9,1.5,28.0,1.3,-30.1,5.73,2.40,-26.7,31.6
2012-08-07 01:49:00,0.0,1.8954,0.0012,384.23,0.12,6.7,7.7,138.05,31.36,24.64,36.37,0.95,17.63,-25.66,-49,570,-939,28.1,18.2,1.7,28.1,1.3,-30.1,5.73,2.40,-26.7,31.5
2012-08-07 01:50:00,0.0,,,,,,,,,,,0.95,17.68,-25.66,-49,570,-940,28.1,18.0,1.6,28.1,1.3,-30.1,5.73,2.39,-26.7,31.5
2012-08-07 01:51:00,0.0,,,,,,,,,,,0.95,17.72,-25.66,-49,570,-939,28.1,17.0,0.8,28.1,1.3,-30.1,5.73,2.40,-26.7,31.6
2012-08-07 01:52:00,0.0,,,,,,,,,,,0.95,17.75,-25.66,-49,570,-940,28.2,17.0,0.8,28.1,1.3,-30.0,5.73,2.40,-26.7,31.6
2012-08-07 01:53:00,0.0,,,,,,,,,,,0.95,17.79,-25.66,-49,570,-939,28.1,16.5,0.4,28.1,1.3,-30.1,5.73,2.40,-26.7,31.6
2012-08-07 01:54:00,0.0,,,,,,,,,,,0.95,17.82,-25.66,-49,570,-940,28.1,16.3,0.2,28.1,1.3,-30.1,5.73,2.40,-26.7,31.6
2012-08-07 01:55:00,0.0,,,,,,,,,,,0.96,17.85,-25.65,-49,570,-939,28.2,16.0,-0.1,28.1,1.3,-30.1,5.73,2.41,-26.7,31.6
2012-08-07 01:56:00,0.0,,,,,,,,,,,0.95,17.89,-25.66,-49,570,-940,28.2,15.8,-0.2,28.1,1.3,-30.1,5.73,2.41,-26.7,31.6
2012-08-07 01:57:00,0.0,,,,,,,,,,,0.96,17.92,-25.65,-49,570,-939,28.2,15.7,-0.3,28.1,1.3,-30.1,5.73,2.40,-26.7,31.6
2012-08-07 01:58:00,0.0,,,,,,,,,,,0.95,17.95,-25.65,-49,570,-940,28.2,15.5,-0.5,28.1,1.3,-30.1,5.73,2.40,-26.6,31.5
2012-08-07 01:59:00,0.0,,,,,,,,,,,0.95,17.98,-25.65,-49,570,-939,28.2,15.6,-0.4,28.1,1.3,-30.0,5.73,2.39,-26.7,31.6
2012-08-07 02:00:00,0.0,,,,,,,,,,,0.95,18.00,-25.65,-49,570,-940,28.2,15.8,-0.2,28.1,1.3,-30.1,5.73,2.39,-26.7,31.6
2012-08-07 02:01:00,0.0,,,,,,,,,,,0.96,18.03,-25.64,-49,570,-939,28.2,16.6,0.5,28.2,1.3,-30.0,5.73,2.39,-26.6,31.6
2012-08-07 02:02:00,0.0,,,,,,,,,,,0.96,18.06,-25.65,-49,570,-940,28.2,17.4,1.2,28.2,1.3,-30.0,5.73,2.40,-26.7,31.6
2012-08-07 02:03:00,0.0,,,,,,,,,,,0.94,18.08,-25.65,-49,570,-939,28.2,17.3,1.0,28.2,1.3,-30.1,5.73,2.40,-26.7,31.7
2012-08-07 02:04:00,0.0,,,,,,,,,,,0.96,18.10,-25.65,-49,570,-940,28.2,16.6,0.5,28.2,1.3,-30.0,5.73,2.40,-26.7,31.6
2012-08-07 02:05:00,0.0,,,,,,,,,,,0.96,18.12,-25.64,-49,570,-939,28.2,15.7,-0.3,28.2,1.3,-30.1,5.73,2.40,-26.6,31.6
2012-08-07 02:06:00,0.0,,,,,,,,,,,0.95,18.14,-25.64,-49,571,-940,28.2,15.9,-0.1,28.2,1.3,-30.1,5.73,2.40,-26.6,31.6
2012-08-07 02:07:00,0.0,,,,,,,,,,,0.97,18.16,-25.64,-49,570,-939,28.2,15.2,-0.7,28.2,1.3,-30.0,5.73,2.40,-26.6,31.7
2012-08-07 02:08:00,0.0,,,,,,,,,,,0.96,18.18,-25.64,-49,570,-940,28.2,15.4,-0.5,28.2,1.3,-30.0,5.73,2.39,-26.6,31.6
2012-08-07 02:09:00,0.0,,,,,,,,,,,0.96,18.20,-25.64,-49,570,-939,28.2,15.2,-0.7,28.2,1.3,-30.0,5.73,2.39,-26.6,31.7
2012-08-07 02:10:00,0.0,,,,,,,,,,,0.95,18.21,-25.64,-49,570,-940,28.2,14.9,-0.9,28.2,1.3,-30.0,5.73,2.39,-26.6,31.7
2012-08-07 02:11:00,0.0,,,,,,,,,,,0.94,18.24,-25.64,-49,571,-939,28.2,16.0,0.0,28.2,1.3,-30.2,5.73,2.39,-26.6,31.6
2012-08-07 02:12:00,0.0,,,,,,,,,,,0.98,18.25,-25.64,-49,570,-940,28.2,16.0,0.0,28.2,1.3,-30.3,5.73,2.40,-26.6,31.6
2012-08-07 02:13:00,0.0,,,,,,,,,,,0.97,18.27,-25.64,-49,571,-939,28.3,15.5,-0.4,28.2,1.3,-30.5,5.73,2.40,-26.7,31.6
2012-08-07 02:14:00,0.0,,,,,,,,,,,0.98,18.29,-25.63,-49,571,-940,28.3,16.2,0.2,28.2,1.3,-30.5,5.73,2.40,-26.6,31.6
2012-08-07 02:15:00,0.0,,,,,,,,,,,1.00,18.27,-25.63,-49,571,-939,28.3,16.6,0.5,28.2,1.2,-30.6,5.73,2.40,-26.6,31.6
2012-08-07 02:16:00,0.0,,,,,,,,,,,1.16,17.15,-25.63,-49,571,-940,28.3,16.4,0.4,28.2,1.2,-30.7,5.73,2.40,-26.6,31.7
2012-08-07 02:17:00,0.0,,,,,,,,,,,1.16,15.01,-25.63,-49,571,-939,28.3,16.3,0.3,28.2,1.2,-30.7,5.73,2.39,-26.6,31.7
2012-08-07 02:18:00,0.0,,,,,,,,,,,1.03,12.67,-25.64,-49,571,-940,28.3,16.2,0.3,28.2,1.2,-30.7,5.73,2.39,-26.6,31.7
2012-08-07 02:19:00,0.0,,,,,,,,,,,1.02,10.32,-25.66,-49,571,-939,28.3,16.5,0.5,28.2,1.2,-30.9,5.73,2.39,-26.6,31.7
2012-08-07 02:20:00,0.0,,,,,,,,,,,0.99,8.06,-25.66,-49,571,-940,28.3,16.3,0.3,28.2,1.2,-30.9,5.73,2.39,-26.6,31.7
2012-08-07 02:21:00,0.0,,,,,,,,,,,1.04,5.90,-25.66,-49,571,-939,28.3,16.0,0.0,28.2,1.2,-30.9,5.73,2.39,-26.6,31.7
2012-08-07 02:22:00,0.0,,,,,,,,,,,1.12,3.86,-25.65,-49,571,-940,28.3,15.5,-0.3,28.2,1.2,-31.0,5.73,2.40,-26.6,31.7
2012-08-07 02:23:00,0.0,,,,,,,,,,,1.00,1.92,-25.64,-49,571,-939,28.3,15.5,-0.3,28.2,1.2,-31.0,5.73,2.40,-26.6,31.7
2012-08-07 02:24:00,0.0,,,,,,,,,,,1.04,0.08,-25.62,-49,571,-940,28.3,15.5,-0.3,28.3,1.2,-30.9,5.73,2.40,-26.6,31.7
2012-08-07 02:25:00,0.0,,,,,,,,,,,1.11,-1.67,-25.61,-49,571,-939,28.3,15.2,-0.6,28.3,1.2,-30.7,5.73,2.40,-26.6,31.7
2012-08-07 02:26:00,0.0,,,,,,,,,,,1.00,-3.28,-25.60,-49,571,-940,28.3,15.6,-0.2,28.3,1.2,-30.6,5.73,2.39,-26.6,31.7
2012-08-07 02:27:00,0.0,,,,,,,,,,,1.05,-4.70,-25.59,-49,571,-939,28.4,15.3,-0.5,28.3,1.2,-30.7,5.73,2.39,-26.6,31.8
2012-08-07 02:28:00,0.0,,,,,,,,,,,1.09,-4.94,-25.57,-49,571,-940,28.4,15.4,-0.4,28.3,1.2,-30.6,5.73,2.39,-26.6,31.8
2012-08-07 02:29:00,0.0,,,,,,,,,,,1.01,-6.80,-25.57,-49,571,-939,28.4,15.6,-0.2,28.3,1.2,-30.6,5.73,2.38,-26.6,31.8
2012-08-07 02:30:00,0.0,,,,,,,,,,,1.02,-8.15,-25.56,-50,571,-940,28.4,14.8,-0.9,28.3,1.2,-30.6,5.73,2.39,-26.6,31.9
2012-08-07 02:31:00,0.0,,,,,,,,,,,1.10,-9.40,-25.55,-50,571,-939,28.4,14.8,-0.9,28.4,1.2,-30.6,5.73,2.39,-26.5,31.9
2012-08-07 02:32:00,0.0,,,,,,,,,,,1.04,-10.58,-25.54,-50,571,-940,28.4,16.1,0.2,28.4,1.2,-30.6,5.73,2.40,-26.5,31.8
2012-08-07 02:33:00,0.0,,,,,,,,,,,0.99,-11.50,-25.54,-49,571,-939,28.4,14.5,-1.2,28.4,1.2,-30.6,5.73,2.39,-26.5,31.8
2012-08-07 02:34:00,0.0,,,,,,,,,,,1.06,-12.38,-25.54,-49,571,-940,28.4,14.4,-1.3,28.4,1.2,-30.6,5.73,2.39,-26.5,31.9
2012-08-07 02:35:00,0.0,,,,,,,,,,,1.08,-13.48,-25.53,-50,571,-940,28.4,14.5,-1.1,28.4,1.2,-30.6,5.73,2.39,-26.5,31.8
2012-08-07 02:36:00,0.0,,,,,,,,,,,1.02,-14.43,-25.53,-50,571,-940,28.4,14.7,-0.9,28.4,1.2,-30.8,5.73,2.38,-26.5,31.8
2012-08-07 02:37:00,0.0,,,,,,,,,,,1.00,-15.30,-25.53,-50,571,-940,28.4,15.4,-0.3,28.4,1.2,-30.8,5.73,2.38,-26.5,31.9
2012-08-07 02:38:00,0.0,,,,,,,,,,,1.08,-16.12,-25.53,-50,571,-940,28.4,14.9,-0.8,28.4,1.2,-30.8,5.73,2.38,-26.5,31.8
2012-08-07 02:39:00,0.0,,,,,,,,,,,1.07,-16.90,-25.53,-50,571,-940,28.5,14.4,-1.2,28.4,1.2,-30.8,5.73,2.39,-26.5,31.9
2012-08-07 02:40:00,0.0,,,,,,,,,,,0.98,-17.62,-25.54,-50,571,-940,28.5,14.4,-1.2,28.4,1.2,-30.8,5.73,2.39,-26.5,31.9
2012-08-07 02:41:00,0.0,,,,,,,,,,,1.02,-18.31,-25.54,-50,571,-940,28.5,14.6,-1.1,28.4,1.2,-30.8,5.73,2.39,-26.5,31.9
2012-08-07 02:42:00,0.0,,,,,,,,,,,1.07,-18.96,-25.54,-50,572,-940,28.5,14.3,-1.3,28.4,1.2,-30.8,5.73,2.39,-26.5,31.9
2012-08-07 02:43:00,0.0,,,,,,,,,,,1.06,-19.57,-25.55,-50,572,-940,28.5,14.6,-1.1,28.4,1.2,-30.8,5.73,2.38,-26.5,31.9
2012-08-07 02:44:00,0.0,,,,,,,,,,,0.99,-20.14,-25.55,-50,572,-940,28.5,14.4,-1.2,28.5,1.2,-30.8,5.73,2.38,-26.5,31.9
2012-08-07 02:45:00,0.0,,,,,,,,,,,1.00,-20.69,-25.55,-50,571,-940,28.5,14.7,-1.0,28.5,1.2,-30.8,5.73,2.37,-26.5,31.9
2012-08-07 02:46:00,0.0,,,,,,,,,,,1.06,-21.22,-25.56,-50,572,-940,28.5,14.3,-1.3,28.5,1.2,-30.8,5.73,2.38,-26.5,31.9
2012-08-07 02:47:00,0.0,1.8945,0.0011,383.95,0.23,13.2,27.1,138.06,31.35,24.65,36.39,1.07,-21.72,-25.56,-50,572,-940,28.6,14.8,-0.8,28.5,1.2,-30.8,5.73,2.39,-26.4,31.9
2012-08-07 02:48:00,0.0,1.8945,0.0012,384.02,0.28,10.8,21.1,138.06,31.35,24.65,36.39,0.99,-22.19,-25.57,-50,572,-940,28.6,14.7,-0.9,28.5,1.2,-30.8,5.73,2.39,-26.5,32.0
2012-08-07 02:49:00,0.0,1.8954,0.0012,384.23,0.12,6.7,7.7,138.05,31.36,24.64,36.37,0.99,-22.64,-25.58,-50,572,-940,28.6,14.8,-0.8,28.5,1.2,-30.8,5.73,2.39,-26.5,32.0
2012-08-07 02:50:00,0.0,,,,,,,,,,,1.06,-23.06,-25.59,-50,572,-940,28.6,15.2,-0.4,28.5,1.2,-30.8,5.73,2.38,-26.4,32.0
2012-08-07 02:51:00,0.0,,,,,,,,,,,1.09,-23.46,-25.59,-50,572,-940,28.6,15.8,0.1,28.5,1.2,-30.8,5.73,2.37,-26.4,32.0
2012-08-07 02:52:00,0.0,,,,,,,,,,,0.99,-23.83,-25.60,-50,572,-940,28.6,15.0,-0.5,28.5,1.2,-30.8,5.73,2.37,-26.4,32.0
2012-08-07 02:53:00,0.0,,,,,,,,,,,0.98,-24.18,-25.61,-50,572,-940,28.6,15.1,-0.5,28.5,1.2,-30.8,5.73,2.37,-26.4,32.0
2012-08-07 02:54:00,0.0,,,,,,,,,,,1.05,-24.51,-25.61,-50,572,-940,28.6,15.5,-0.1,28.5,1.2,-30.8,5.73,2.38,-26.4,32.0
2012-08-07 02:55:00,0.0,,,,,,,,,,,1.08,-24.83,-25.62,-50,572,-940,28.6,14.9,-0.7,28.6,1.2,-31.0,5.73,2.39,-26.4,32.0
2012-08-07 02:56:00,0.0,,,,,,,,,,,1.03,-25.12,-25.63,-50,572,-940,28.6,15.5,-0.1,28.6,1.2,-31.0,5.73,2.39,-26.4,32.0
2012-08-07 02:57:00,0.0,,,,,,,,,,,0.97,-25.39,-25.63,-50,572,-940,28.6,15.2,-0.4,28.6,1.2,-31.0,5.73,2.39,-26.4,32.0
2012-08-07 02:58:00,0.0,,,,,,,,,,,0.94,-25.57,-25.64,-50,572,-940,28.7,14.9,-0.6,28.6,1.2,-31.0,5.73,2.37,-26.4,32.0
2012-08-07 02:59:00,0.0,,,,,,,,,,,1.04,-25.31,-25.65,-50,572,-940,28.7,14.8,-0.7,28.6,1.2,-31.0,5.73,2.37,-26.4,32.1
2012-08-07 03:00:00,0.0,,,,,,,,,,,1.06,-25.44,-25.66,-50,572,-940,28.7,15.1,-0.4,28.6,1.2,-30.9,5.73,2.37,-26.4,32.1
2012-08-07 03:01:00,0.0,,,,,,,,,,,1.05,-25.60,-25.66,-50,572,-940,28.7,14.9,-0.6,28.6,1.2,-30.9,5.73,2.38,-26.4,32.1
2012-08-07 03:02:00,0.0,,,,,,,,,,,1.03,-25.34,-25.67,-50,572,-940,28.7,15.0,-0.5,28.6,1.2,-30.9,5.73,2.39,-26.4,32.2
2012-08-07 03:03:00,0.0,,,,,,,,,,,0.98,-25.43,-25.68,-50,572,-940,28.7,15.7,0.2,28.6,1.2,-31.0,5.73,2.39,-26.4,32.2
2012-08-07 03:04:00,0.0,,,,,,,,,,,0.98,-25.62,-25.68,-50,572,-940,28.7,15.3,-0.2,28.7,1.2,-30.9,5.73,2.38,-26.4,32.2
2012-08-07 03:05:00,0.0,,,,,,,,,,,1.05,-25.38,-25.68,-50,573,-940,28.7,15.9,0.3,28.7,1.2,-31.0,5.73,2.37,-26.4,32.2
2012-08-07 03:06:00,0.0,,,,,,,,,,,1.09,-25.43,-25.69,-50,573,-940,28.7,14.8,-0.6,28.7,1.2,-30.9,5.73,2.37,-26.4,32.2
2012-08-07 03:07:00,0.0,,,,,,,,,,,1.04,-25.63,-25.70,-50,573,-940,28.8,15.7,0.1,28.7,1.2,-30.9,5.73,2.37,-26.4,32.2
2012-08-07 03:08:00,0.0,,,,,,,,,,,0.98,-25.42,-25.70,-50,573,-940,28.8,15.4,-0.1,28.7,1.2,-30.9,5.73,2.38,-26.4,32.1
2012-08-07 03:09:00,0.0,,,,,,,,,,,0.98,-25.43,-25.71,-50,573,-940,28.8,15.1,-0.3,28.7,1.2,-30.9,5.73,2.38,-26.4,32.1
2012-08-07 03:10:00,0.0,,,,,,,,,,,0.99,-25.64,-25.71,-50,573,-940,28.8,15.5,0.0,28.7,1.2,-30.9,5.73,2.39,-26.4,32.2
2012-08-07 03:11:00,0.0,,,,,,,,,,,1.03,-25.45,-25.72,-50,573,-940,28.8,16.1,0.5,28.7,1.2,-30.9,5.73,2.38,-26.4,32.2
2012-08-07 03:12:00,0.0,,,,,,,,,,,1.07,-25.44,-25.72,-50,573,-940,28.8,16.2,0.6,28.7,1.2,-31.1,5.73,2.37,-26.4,32.2
2012-08-07 03:13:00,0.0,,,,,,,,,,,1.07,-25.65,-25.73,-50,573,-940,28.8,15.1,-0.4,28.8,1.1,-31.1,5.73,2.37,-26.4,32.2
2012-08-07 03:14:00,0.0,,,,,,,,,,,0.94,-25.47,-25.70,-50,573,-940,28.8,14.8,-0.6,28.8,1.2,-31.0,5.73,2.37,-26.4,32.2
2012-08-07 03:15:00,0.0,,,,,,,,,,,0.89,-25.46,-24.76,-50,573,-940,28.8,15.3,-0.1,28.8,1.2,-30.6,5.73,2.39,-26.3,32.2
2012-08-07 03:16:00,0.0,,,,,,,,,,,0.85,-25.64,-22.90,-50,573,-940,28.8,15.7,0.3,28.8,1.4,-29.4,5.73,2.39,-26.3,32.2
2012-08-07 03:17:00,0.0,,,,,,,,,,,0.87,-25.76,-20.92,-50,573,-940,28.9,15.8,0.3,28.8,1.5,-28.3,5.73,2.37,-26.4,32.2
2012-08-07 03:18:00,0.0,,,,,,,,,,,0.88,-25.84,-19.00,-50,573,-940,28.9,15.9,0.4,28.8,1.6,-27.7,5.73,2.36,-26.4,32.3
2012-08-07 03:19:00,0.0,,,,,,,,,,,0.91,-25.90,-17.16,-50,573,-940,28.9,15.0,-0.4,28.8,1.6,-27.6,5.73,2.37,-26.3,32.3